Weather in Kumertau

Russia / Republic of Bashkortostan     52°45′23″N   55°47′49″E
temp.,
°C
wind,
m/s
gust,
m/s
humid.,
%
clouds,
%
prec.,
mm/h
press.,
hPa
HPBL,
m
29 june, wed
wed2923:00+9n512840 0.0 1013514
02:00+6nnw37921 0.0 1013191
05:00+5nnw38925 0.0 1014212
08:00+8n69785 0.0 1014644
11:00+11n686343 0.0 10141226
14:00+11n686898 0.0 10141214
17:00+11nne6971100 0.1 10141182
20:00+11n497794 0.0 1014759
30 june, thu
thu3023:00+10nnw118292 0.0 101420
02:00+10wnw008087 0.0 101310
05:00+10wsw1172100 0.0 101310
08:00+12wnw2473100 0.0 1013186
11:00+15wnw235698 0.1 10121051
14:00+15sw3359100 0.0 10111110
17:00+17wsw545576 0.0 10111384
20:00+15wsw367143 0.0 1010223
1 july, fri
fri123:00+11ssw337995 0.1 101025
02:00+11s3576100 0.0 1010134
05:00+9ssw3389100 0.4 101044
08:00+12s468291 0.1 1010287
11:00+15s5672100 0.7 1010592
14:00+17s566782 2.2 10101320
17:00+16sw8869100 3.7 1010739
20:00+15e348090 0.3 1010170
2 july, sat
sat223:00+12ene4881100 0.3 1009157
02:00+12e51272100 0.0 1009258
05:00+11ese2380100 0.2 100963
08:00+12nne358593 0.3 1009196
11:00+16ene467239 0.8 1008635
14:00+12nne2494100 7.2 1008144
17:00+14ese3492100 14.1 1008302
20:00+14ene51186100 3.1 1006469
3 july, sun
sun323:00+12ene51296100 10.0 1005539
02:00+12ne51195100 3.1 1006531
05:00+12ne61494100 5.0 1006590
08:00+12nne5995100 1.3 1007370
11:00+15nne6118266 1.3 1008738
14:00+19n78646 0.0 10081406
17:00+19n810695 0.6 10091194
20:00+17n6117965 0.4 1010432